KLM104 EHAM-LSZB

Flight info

Callsign KLM104
Flight time 0h 56m
Altitude 35000
Route LOPIK N852 SUTAL DCT GTQ DCT POGOL DCT LASAT A242 HR T626 LUTIX T627 BIRKI
Aircraft B737/M-SDE2E3FGHIRWXY/LB1

Departure

Time 2026-05-04 07:44
Airport Amsterdam Airport Schiphol (EHAM)

Arrival

Time 2026-05-04 08:40
Airport Bern Airport (LSZB)
Time Latitude Longitude Altitude Speed Heading
2026-05-04 07:24 52.30898 4.77238 -2 ft 0 kts
2026-05-04 07:38 52.30844 4.77190 -2 ft 0 kts 95°
2026-05-04 07:40 52.30844 4.77197 -2 ft 2 kts 91°
2026-05-04 07:40 52.30842 4.77250 -2 ft 7 kts 94°
2026-05-04 07:40 52.30838 4.77356 -2 ft 10 kts 94°
2026-05-04 07:41 52.30820 4.77456 -2 ft 10 kts 146°
2026-05-04 07:41 52.30752 4.77461 -2 ft 10 kts 182°
2026-05-04 07:41 52.30716 4.77458 -2 ft 1 kts 181°
2026-05-04 07:41 52.30711 4.77458 -2 ft 2 kts 180°
2026-05-04 07:42 52.30685 4.77458 -2 ft 6 kts 176°
2026-05-04 07:42 52.30627 4.77495 -2 ft 10 kts 150°
2026-05-04 07:42 52.30564 4.77548 -2 ft 10 kts 154°
2026-05-04 07:42 52.30503 4.77598 -2 ft 10 kts 156°
2026-05-04 07:43 52.30440 4.77635 -2 ft 9 kts 176°
2026-05-04 07:43 52.30389 4.77574 -3 ft 10 kts 239°
2026-05-04 07:43 52.30305 4.77355 -4 ft 48 kts 237°
2026-05-04 07:43 52.29989 4.76527 -3 ft 123 kts 237°
2026-05-04 07:44 52.29432 4.75079 120 ft 169 kts 236°
2026-05-04 07:44 52.28688 4.73459 660 ft 187 kts 227°
2026-05-04 07:44 52.27881 4.71752 1331 ft 195 kts 234°
2026-05-04 07:44 52.27130 4.69821 1964 ft 215 kts 241°
2026-05-04 07:45 52.26222 4.67759 2380 ft 233 kts 213°
2026-05-04 07:45 52.24700 4.67040 3145 ft 230 kts 167°
2026-05-04 07:45 52.23351 4.68168 4101 ft 217 kts 124°
2026-05-04 07:45 52.22828 4.70382 5022 ft 212 kts 91°
2026-05-04 07:46 52.22463 4.72777 5659 ft 235 kts 117°
2026-05-04 07:46 52.21517 4.75092 6289 ft 252 kts 119°
2026-05-04 07:46 52.20572 4.77552 7227 ft 258 kts 117°
2026-05-04 07:46 52.19655 4.80077 8266 ft 260 kts 120°
2026-05-04 07:47 52.18742 4.82591 9235 ft 264 kts 116°
2026-05-04 07:47 52.17806 4.85258 10216 ft 269 kts 115°
2026-05-04 07:47 52.16888 4.87941 11001 ft 284 kts 115°
2026-05-04 07:49 52.04110 5.02490 17096 ft 347 kts 149°
2026-05-04 07:49 52.01987 5.04425 17974 ft 352 kts 148°
2026-05-04 07:49 51.99867 5.06437 18849 ft 357 kts 147°
2026-05-04 07:50 51.97705 5.08494 19668 ft 363 kts 148°
2026-05-04 07:50 51.95488 5.10579 20400 ft 371 kts 148°
2026-05-04 07:50 51.93233 5.12661 21228 ft 376 kts 151°
2026-05-04 07:50 51.90764 5.14211 22062 ft 382 kts 162°
2026-05-04 07:51 51.88168 5.15345 22799 ft 389 kts 165°
2026-05-04 07:51 51.85553 5.16378 23514 ft 393 kts 166°
2026-05-04 07:51 51.82848 5.17449 24234 ft 398 kts 165°
2026-05-04 07:51 51.80174 5.18545 24901 ft 402 kts 165°
2026-05-04 07:52 51.77453 5.19697 25554 ft 407 kts 165°
2026-05-04 07:52 51.74697 5.20888 26177 ft 411 kts 165°
2026-05-04 07:52 51.71918 5.22106 26761 ft 416 kts 165°
2026-05-04 07:52 51.69115 5.23343 27356 ft 419 kts 165°
2026-05-04 07:53 51.66299 5.24592 28074 ft 419 kts 165°
2026-05-04 07:54 51.46727 5.33263 32534 ft 419 kts 166°
2026-05-04 07:55 51.43912 5.34508 33039 ft 419 kts 166°
2026-05-04 07:55 51.41092 5.35741 33571 ft 419 kts 166°
2026-05-04 07:55 51.38274 5.36963 34057 ft 420 kts 167°
2026-05-04 07:55 51.35452 5.38190 34523 ft 421 kts 167°
2026-05-04 07:56 51.32658 5.39409 35000 ft 421 kts 167°
2026-05-04 07:56 51.29798 5.40662 35303 ft 422 kts 167°
2026-05-04 07:56 51.24122 5.42995 35287 ft 423 kts 170°
2026-05-04 07:57 51.18223 5.44909 35284 ft 443 kts 171°
2026-05-04 07:57 51.12105 5.47351 35274 ft 462 kts 166°
2026-05-04 07:58 51.05811 5.50148 35282 ft 477 kts 166°
2026-05-04 07:58 50.99401 5.52999 35271 ft 476 kts 166°
2026-05-04 07:59 50.93027 5.55794 35275 ft 474 kts 167°
2026-05-04 07:59 50.86729 5.58650 35248 ft 473 kts 168°
2026-05-04 08:00 50.81412 5.60949 35200 ft 473 kts 168°
2026-05-04 08:02 50.60619 5.70073 35274 ft 478 kts 164°
2026-05-04 08:02 50.54289 5.73390 35275 ft 480 kts 160°
2026-05-04 08:03 50.48069 5.77141 35268 ft 482 kts 159°
2026-05-04 08:03 50.41738 5.80630 35269 ft 482 kts 166°
2026-05-04 08:04 50.35376 5.84035 35261 ft 483 kts 162°
2026-05-04 08:04 50.29113 5.87943 35240 ft 484 kts 162°
2026-05-04 08:05 50.22821 5.91717 35241 ft 483 kts 163°
2026-05-04 08:05 50.16569 5.95390 35234 ft 484 kts 163°
2026-05-04 08:06 50.10248 5.99071 35227 ft 483 kts 163°
2026-05-04 08:06 50.03936 6.02695 35218 ft 483 kts 163°
2026-05-04 08:08 49.78857 6.17653 35210 ft 483 kts 159°
2026-05-04 08:11 49.51126 6.36250 35211 ft 484 kts 161°
2026-05-04 08:11 49.41811 6.42321 35205 ft 486 kts 161°
2026-05-04 08:12 49.35615 6.46500 35202 ft 487 kts 160°
2026-05-04 08:12 49.29412 6.50720 35197 ft 487 kts 160°
2026-05-04 08:13 49.23234 6.54913 35193 ft 488 kts 160°
2026-05-04 08:13 49.17007 6.59125 35195 ft 489 kts 160°
2026-05-04 08:14 49.10768 6.63354 35181 ft 490 kts 160°
2026-05-04 08:16 48.84858 6.70996 35167 ft 477 kts 189°
2026-05-04 08:16 48.78210 6.70613 35176 ft 478 kts 188°
2026-05-04 08:17 48.71547 6.70339 35171 ft 479 kts 188°
2026-05-04 08:17 48.65048 6.70124 35146 ft 454 kts 188°
2026-05-04 08:19 48.45264 6.69474 35125 ft 359 kts 191°
2026-05-04 08:19 48.42823 6.69379 35133 ft 353 kts 192°
2026-05-04 08:20 48.37820 6.69163 35184 ft 371 kts 191°
2026-05-04 08:20 48.32569 6.68931 34939 ft 382 kts 191°
2026-05-04 08:21 48.29859 6.68822 34191 ft 395 kts 191°
2026-05-04 08:21 48.27068 6.68713 32999 ft 410 kts 191°
2026-05-04 08:21 48.24155 6.68611 31800 ft 422 kts 191°
2026-05-04 08:21 48.21229 6.68520 31009 ft 428 kts 191°
2026-05-04 08:22 48.18272 6.68423 30654 ft 419 kts 192°
2026-05-04 08:22 48.15365 6.68319 30283 ft 414 kts 192°
2026-05-04 08:24 47.95770 6.67583 27107 ft 390 kts 193°
2026-05-04 08:24 47.93059 6.67474 26632 ft 388 kts 192°
2026-05-04 08:24 47.90365 6.67379 26178 ft 386 kts 192°
2026-05-04 08:24 47.87730 6.67295 25725 ft 382 kts 192°
2026-05-04 08:25 47.85077 6.67206 25290 ft 379 kts 192°
2026-05-04 08:25 47.82459 6.67107 24839 ft 375 kts 192°
2026-05-04 08:25 47.79850 6.67003 24291 ft 373 kts 192°
2026-05-04 08:25 47.77266 6.66909 23872 ft 369 kts 192°
2026-05-04 08:26 47.74711 6.66817 23433 ft 365 kts 192°
2026-05-04 08:27 47.57599 6.72322 20328 ft 367 kts 159°
2026-05-04 08:28 47.55459 6.74449 19862 ft 372 kts 143°
2026-05-04 08:28 47.53691 6.77212 19535 ft 367 kts 135°
2026-05-04 08:28 47.52032 6.80063 19137 ft 363 kts 134°
2026-05-04 08:28 47.50402 6.82908 18680 ft 362 kts 134°
2026-05-04 08:29 47.48783 6.85735 18257 ft 358 kts 134°
2026-05-04 08:29 47.47207 6.88479 17722 ft 350 kts 134°
2026-05-04 08:29 47.45632 6.91210 17060 ft 347 kts 134°
2026-05-04 08:31 47.35022 7.08855 13316 ft 312 kts 138°
2026-05-04 08:33 47.23890 7.21508 10040 ft 280 kts 173°
2026-05-04 08:33 47.21979 7.21943 9436 ft 277 kts 174°
2026-05-04 08:35 47.10159 7.26749 7143 ft 249 kts 139°
2026-05-04 08:35 47.08845 7.28384 7066 ft 245 kts 141°
2026-05-04 08:35 47.07534 7.29973 6891 ft 244 kts 141°
2026-05-04 08:35 47.06238 7.31549 6492 ft 240 kts 141°
2026-05-04 08:37 46.99185 7.40186 4148 ft 188 kts 144°
2026-05-04 08:37 46.98216 7.41371 3817 ft 179 kts 141°
2026-05-04 08:37 46.97291 7.42500 3604 ft 164 kts 143°
2026-05-04 08:38 46.96447 7.43528 3276 ft 151 kts 140°
2026-05-04 08:38 46.95633 7.44567 2985 ft 157 kts 140°
2026-05-04 08:38 46.94817 7.45547 2698 ft 147 kts 140°
2026-05-04 08:40 46.91027 7.50184 1684 ft 0 kts 140°
2026-05-04 08:40 46.91026 7.50185 1684 ft 2 kts 140°
2026-05-04 08:41 46.91022 7.50190 1685 ft 0 kts 140°
2026-05-04 08:41 46.91021 7.50191 1684 ft 1 kts 140°
2026-05-04 08:42 46.91014 7.50200 1684 ft 0 kts 139°